Change the Weather History Date:

Thursday, February 21, 2013

  Actual Average (KBFD) Record (KBFD)
Temperature  
Mean Temperature 16 °F 25 °F  
Max Temperature 17 °F 34 °F 64 °F (1997)
Min Temperature 14 °F 15 °F -8 °F (1968)
Degree Days  
Heating Degree Days 50 35  
Month to date heating degree days 765  
Since 1 July heating degree days 5176  
Cooling Degree Days 0 0  
Month to date cooling degree days 0  
Year to date cooling degree days 0  
Moisture  
Dew Point 10 °F    
Average Humidity 83    
Maximum Humidity 93    
Minimum Humidity 68    
Precipitation  
Precipitation 0.00 in 0.08 in 1.04 in (1989)
Month to date precipitation 1.73  
Year to date precipitation 5.02  
Sea Level Pressure  
Sea Level Pressure 30.10 in    
Wind  
Wind Speed 2 mph (NNW)    
Max Wind Speed 12 mph    
Max Gust Speed 20 mph    
Visibility 5 miles    
Events Snow    
T = Trace of Precipitation, MM = Missing Value Source: NWS Daily Summary

Daily Weather History Graph

Daily Weather History Graph

Search for Another Location

Airport or City:

Trip Planner

Search our weather history database for the weather conditions in past years. The results will help you decide how hot, cold, wet, or windy it might be!

Date:

Astronomy

Feb. 21, 2013 Rise Set
Actual Time 7:00 AM EST 5:53 PM EST
Civil Twilight 6:32 AM EST 6:22 PM EST
Nautical Twilight 5:59 AM EST 6:54 PM EST
Astronomical Twilight 5:27 AM EST 7:27 PM EST
Moon 2:04 PM EST (2/21) 4:07 AM EST (2/21)
Length of Visible Light 11h 49m
Length of Day
10h 53m
Waxing Gibbous, 83% of the Moon is Illuminated
Feb 21
Waxing Gibbous
Feb 25
Full
Mar 4
Last Quarter
Mar 11
New
Mar 19
First Quarter

Hourly Weather History & Observations

Time (EST) Temp. Windchill Dew Point Humidity Pressure Visibility Wind Dir Wind Speed Gust Speed Precip Events Conditions
12:15 AM 14.0 °F - 10.4 °F 86% 29.94 in 3.0 mi Calm Calm - N/A Snow Light Snow
12:35 AM 14.0 °F - 10.4 °F 86% 29.95 in 1.8 mi Calm Calm - N/A Snow Light Snow
12:55 AM 14.0 °F - 10.4 °F 86% 29.94 in 2.5 mi Calm Calm - N/A Snow Light Snow
1:15 AM 14.0 °F - 10.4 °F 86% 29.94 in 1.5 mi Calm Calm - N/A Snow Light Snow
1:35 AM 14.0 °F - 10.4 °F 86% 29.94 in 2.5 mi Calm Calm - N/A Snow Light Snow
1:55 AM 14.0 °F - 10.4 °F 86% 29.94 in 4.0 mi Calm Calm - N/A Snow Light Snow
2:15 AM 14.0 °F - 10.4 °F 86% 29.94 in 3.0 mi Calm Calm - N/A Snow Light Snow
2:35 AM 14.0 °F - 10.4 °F 86% 29.94 in 4.0 mi Calm Calm - N/A Snow Light Snow
2:55 AM 14.0 °F - 10.4 °F 86% 29.94 in 3.0 mi Calm Calm - N/A Snow Light Snow
3:15 AM 14.0 °F - 10.4 °F 86% 29.94 in 3.0 mi Calm Calm - N/A Snow Light Snow
3:35 AM 14.0 °F - 10.4 °F 86% 29.94 in 2.5 mi Calm Calm - N/A Snow Light Snow
3:55 AM 14.0 °F - 10.4 °F 86% 29.95 in 2.0 mi Calm Calm - N/A Snow Light Snow
4:15 AM 14.0 °F - 12.2 °F 93% 29.96 in 1.8 mi Calm Calm - N/A Snow Light Snow
4:35 AM 14.0 °F - 12.2 °F 93% 29.96 in 1.5 mi Calm Calm - N/A Snow Light Snow
4:55 AM 14.0 °F - 10.4 °F 86% 29.96 in 2.5 mi Calm Calm - N/A Snow Light Snow
5:15 AM 14.0 °F - 10.4 °F 86% 29.97 in 4.0 mi Calm Calm - N/A Snow Light Snow
5:35 AM 14.0 °F - 10.4 °F 86% 29.98 in 4.0 mi Calm Calm - N/A Snow Light Snow
5:55 AM 14.0 °F - 10.4 °F 86% 29.99 in 3.0 mi Calm Calm - N/A Snow Light Snow
6:15 AM 14.0 °F - 10.4 °F 86% 29.99 in 1.8 mi Calm Calm - N/A Snow Light Snow
6:55 AM 14.0 °F - 10.4 °F 86% 30.01 in 2.0 mi Calm Calm - N/A Snow Light Snow
7:15 AM 14.0 °F - 10.4 °F 86% 30.02 in 3.0 mi Calm Calm - N/A Snow Light Snow
7:35 AM 14.0 °F - 10.4 °F 86% 30.02 in 4.0 mi Calm Calm - N/A Snow Light Snow
7:55 AM 14.0 °F - 10.4 °F 86% 30.04 in 1.8 mi Calm Calm - N/A Snow Light Snow
8:15 AM 14.0 °F - 10.4 °F 86% 30.04 in 1.0 mi Calm Calm - N/A Snow Light Snow
8:35 AM 14.0 °F - 10.4 °F 86% 30.05 in 1.2 mi Calm Calm - N/A Snow Light Snow
8:55 AM 14.0 °F - 10.4 °F 86% 30.06 in 0.8 mi Calm Calm - N/A Snow Light Snow
9:15 AM 14.0 °F - 10.4 °F 86% 30.07 in 1.0 mi Calm Calm - N/A Snow Light Snow
9:35 AM 14.0 °F - 8.6 °F 79% 30.08 in 1.2 mi Calm Calm - N/A Snow Light Snow
9:55 AM 14.0 °F - 8.6 °F 79% 30.10 in 1.5 mi Calm Calm - N/A Snow Light Snow
10:15 AM 14.0 °F - 8.6 °F 79% 30.11 in 2.5 mi Calm Calm - N/A Snow Light Snow
10:35 AM 14.0 °F - 8.6 °F 79% 30.10 in 2.0 mi Calm Calm - N/A Snow Light Snow
10:55 AM 14.0 °F - 8.6 °F 79% 30.09 in 2.0 mi Calm Calm - N/A Snow Light Snow
11:15 AM 14.0 °F - 8.6 °F 79% 30.09 in 1.5 mi Calm Calm - N/A Snow Light Snow
11:35 AM 15.8 °F 2.7 °F 6.8 °F 68% 30.10 in 4.0 mi WNW 11.5 mph 19.6 mph N/A Snow Light Snow
11:55 AM 15.8 °F 3.4 °F 8.6 °F 73% 30.09 in 4.0 mi WNW 10.4 mph 18.4 mph N/A Snow Light Snow
12:15 PM 17.6 °F 5.7 °F 8.6 °F 68% 30.10 in 7.0 mi WNW 10.4 mph 18.4 mph N/A Snow Light Snow
12:35 PM 17.6 °F 7.3 °F 8.6 °F 68% 30.11 in 10.0 mi WNW 8.1 mph 17.3 mph N/A Snow Light Snow
1:15 PM 15.8 °F 6.1 °F 8.6 °F 73% 30.12 in 7.0 mi WNW 6.9 mph - N/A Snow Light Snow
1:35 PM 17.6 °F 5.7 °F 8.6 °F 68% 30.12 in 10.0 mi WNW 10.4 mph - N/A Snow Light Snow
1:55 PM 17.6 °F 7.3 °F 10.4 °F 73% 30.11 in 7.0 mi West 8.1 mph - N/A Snow Light Snow
2:15 PM 17.6 °F 7.3 °F 10.4 °F 73% 30.11 in 10.0 mi WNW 8.1 mph - N/A Snow Light Snow
2:35 PM 17.6 °F 10.7 °F 10.4 °F 73% 30.13 in 7.0 mi WNW 4.6 mph - N/A Snow Light Snow
2:55 PM 17.6 °F 12.3 °F 10.4 °F 73% 30.14 in 7.0 mi West 3.5 mph - N/A Snow Light Snow
3:15 PM 17.6 °F 6.4 °F 10.4 °F 73% 30.14 in 5.0 mi WNW 9.2 mph - N/A Snow Light Snow
3:35 PM 17.6 °F 8.2 °F 10.4 °F 73% 30.15 in 7.0 mi West 6.9 mph - N/A Snow Light Snow
3:55 PM 17.6 °F 10.7 °F 10.4 °F 73% 30.15 in 7.0 mi NW 4.6 mph - N/A Snow Light Snow
4:15 PM 17.6 °F 10.7 °F 10.4 °F 73% 30.16 in 10.0 mi NW 4.6 mph - N/A   Overcast
4:35 PM 17.6 °F 9.3 °F 10.4 °F 73% 30.17 in 10.0 mi West 5.8 mph - N/A Snow Light Snow
4:55 PM 17.6 °F 9.3 °F 10.4 °F 73% 30.16 in 7.0 mi WNW 5.8 mph - N/A Snow Light Snow
5:15 PM 17.6 °F 12.3 °F 10.4 °F 73% 30.17 in 10.0 mi WNW 3.5 mph - N/A Snow Light Snow
5:35 PM 15.8 °F 8.6 °F 10.4 °F 79% 30.16 in 10.0 mi WNW 4.6 mph - N/A Snow Light Snow
5:55 PM 15.8 °F 10.2 °F 10.4 °F 79% 30.18 in 7.0 mi WNW 3.5 mph - N/A Snow Light Snow
6:15 PM 14.0 °F 5.1 °F 10.4 °F 86% 30.20 in 10.0 mi NW 5.8 mph - N/A Snow Light Snow
6:35 PM 14.0 °F 5.1 °F 10.4 °F 86% 30.22 in 10.0 mi NW 5.8 mph - N/A   Overcast
6:55 PM 14.0 °F 8.2 °F 10.4 °F 86% 30.25 in 10.0 mi NW 3.5 mph - N/A Snow Light Snow
7:15 PM 14.0 °F - 10.4 °F 86% 30.26 in 10.0 mi Calm Calm - N/A Snow Light Snow
7:35 PM 14.0 °F 8.2 °F 10.4 °F 86% 30.27 in 7.0 mi WNW 3.5 mph - N/A Snow Light Snow
7:55 PM 14.0 °F 8.2 °F 10.4 °F 86% 30.26 in 7.0 mi North 3.5 mph - N/A Snow Light Snow
8:15 PM 14.0 °F 8.2 °F 10.4 °F 86% 30.26 in 10.0 mi North 3.5 mph - N/A Snow Light Snow
8:35 PM 14.0 °F 6.5 °F 10.4 °F 86% 30.25 in 10.0 mi NE 4.6 mph - N/A   Overcast
8:55 PM 14.0 °F 2.9 °F 12.2 °F 93% 30.25 in 10.0 mi NE 8.1 mph - N/A   Overcast
9:15 PM 14.0 °F 5.1 °F 12.2 °F 93% 30.25 in 10.0 mi ENE 5.8 mph - N/A Snow Light Snow
9:35 PM 14.0 °F 6.5 °F 12.2 °F 93% 30.25 in 10.0 mi NNE 4.6 mph - N/A   Overcast
9:55 PM 14.0 °F 5.1 °F 12.2 °F 93% 30.25 in 10.0 mi NE 5.8 mph - N/A Snow Light Snow
10:15 PM 14.0 °F 3.9 °F 12.2 °F 93% 30.25 in 10.0 mi NE 6.9 mph - N/A Snow Light Snow
10:35 PM 14.0 °F 5.1 °F 12.2 °F 93% 30.25 in 10.0 mi ENE 5.8 mph - N/A Snow Light Snow
10:55 PM 14.0 °F 2.9 °F 12.2 °F 93% 30.24 in 7.0 mi East 8.1 mph - N/A Snow Light Snow
11:15 PM 14.0 °F 0.5 °F 12.2 °F 93% 30.23 in 5.0 mi ENE 11.5 mph 16.1 mph N/A Snow Light Snow
11:35 PM 14.0 °F 2.0 °F 12.2 °F 93% 30.23 in 7.0 mi East 9.2 mph - N/A Snow Light Snow
11:55 PM 14.0 °F 2.9 °F 12.2 °F 93% 30.23 in 3.0 mi East 8.1 mph - N/A   Overcast